Theta_e
325 327 327 327 327 327 326 326 328 328 324 323 321 318 313 311 307 298 294 292 290 290 289 288 288 288 288 288 288 289 289 289 290 290 289 288 287 287 287 286 285 285 285
321 324 325 325 325 325 325 327 328 326 323 322 319 314 309 307 302 294 292 290 290 289 288 288 288 287 287 287 288 288 288 287 288 289 288 287 287 287 287 286 285 285 284
311 319 321 323 324 325 325 325 326 322 321 319 315 310 306 303 295 292 291 290 289 288 288 288 288 287 287 287 287 287 287 287 287 288 288 287 287 287 286 285 284 284 284
310 311 313 317 319 321 322 322 322 319 317 315 309 308 302 296 293 291 290 289 288 288 288 288 287 287 287 287 286 286 286 287 287 287 287 287 287 286 286 284 284 284 284
309 308 309 311 314 316 316 316 316 314 313 313 306 299 295 293 291 290 289 288 288 288 288 287 287 286 286 286 286 286 286 287 287 287 287 287 287 286 285 284 283 283 284
308 308 308 310 310 312 313 310 308 306 306 305 297 296 291 290 289 289 289 288 288 287 287 287 286 285 285 285 285 285 285 286 285 286 287 286 286 285 284 283 283 283 284
307 308 309 309 308 307 306 303 302 302 302 296 294 291 290 289 288 288 288 288 288 287 287 286 286 285 285 285 285 284 284 284 284 285 286 286 285 284 283 283 283 282 282
306 306 307 305 303 302 302 300 298 296 295 291 291 289 289 288 288 287 287 287 287 286 286 285 285 285 284 285 285 285 284 284 283 284 284 285 285 284 282 282 281 280 280
302 304 304 303 300 299 296 295 295 292 290 289 289 288 288 287 286 286 286 286 286 285 285 285 284 284 284 283 284 284 283 284 283 283 284 285 285 284 282 281 281 281 283
302 304 303 302 301 298 296 294 292 289 288 288 287 287 286 287 286 286 286 286 285 284 284 284 284 283 283 283 283 283 283 283 283 283 284 284 284 283 282 281 281 281 282
302 302 302 300 299 298 294 292 290 288 287 286 286 285 285 286 285 285 284 285 284 284 284 283 283 283 283 282 283 284 283 283 283 284 284 284 284 283 283 281 281 280 281
299 299 299 298 296 295 293 289 288 287 285 285 284 283 284 284 284 284 284 284 284 284 284 283 283 282 282 282 283 283 283 283 283 283 283 284 284 283 282 281 281 281 281
296 295 294 293 292 290 288 287 285 284 284 282 282 282 281 282 283 282 282 283 283 283 283 285 282 281 281 281 281 281 281 280 281 282 283 283 283 282 282 282 282 281 281
293 291 290 290 288 288 286 286 285 283 283 282 281 281 280 280 281 281 281 281 282 282 284 282 281 281 280 280 280 280 279 279 279 280 281 281 281 281 281 280 279 279 278
292 290 288 286 286 285 285 284 284 284 284 283 282 282 281 280 282 282 282 282 283 283 282 281 280 280 279 279 278 278 277 277 278 279 278 279 280 281 281 281 279 279 278
289 287 286 285 284 283 283 281 282 283 283 283 283 284 283 284 284 283 283 282 282 281 280 280 279 278 277 276 275 275 276 276 276 276 277 277 278 279 280 281 280 279 279
288 286 285 284 283 282 281 281 281 280 281 282 282 282 283 285 284 284 280 280 280 279 279 278 277 276 275 274 273 273 273 273 274 273 274 275 276 276 277 279 280 280 279
286 286 284 283 282 281 281 281 280 280 280 281 281 282 284 284 283 279 279 279 278 277 278 276 275 274 273 273 272 272 272 271 271 270 271 272 272 273 275 277 279 280 279
284 283 282 282 281 281 280 280 280 280 279 280 280 279 280 278 277 278 278 278 277 276 275 274 273 273 272 272 271 271 270 270 269 269 269 269 270 271 273 275 276 277 278
281 282 282 280 280 279 279 280 279 279 280 281 281 280 278 276 276 276 275 276 275 274 273 273 272 272 271 270 270 269 269 269 268 268 268 268 269 270 271 272 274 275 276
280 279 279 279 279 279 279 279 280 280 282 281 279 278 277 277 275 274 274 275 274 273 273 272 271 271 270 269 269 269 268 268 267 268 268 267 266 267 268 270 271 273 274
278 278 278 278 278 277 277 277 278 279 279 277 276 276 274 274 274 274 273 273 273 272 272 271 270 270 269 269 268 268 268 268 268 267 267 267 266 266 267 269 270 271 273
277 277 276 276 276 277 277 278 278 278 277 276 274 273 273 273 272 272 272 271 271 270 270 270 269 269 269 268 268 267 267 267 267 267 267 266 264 265 266 267 269 270 271
275 276 277 277 277 277 277 276 276 275 274 273 272 271 271 270 270 271 271 270 270 269 268 268 268 268 268 268 267 267 267 267 267 267 266 265 265 264 265 266 267 268 269
272 272 273 273 272 272 273 273 273 273 272 271 271 271 270 270 270 270 270 269 268 268 268 267 267 267 267 267 267 266 266 266 266 266 265 265 265 265 265 265 266 266 267
270 270 270 270 270 271 270 270 270 269 269 269 269 269 269 268 268 268 267 267 267 267 267 267 266 266 266 266 266 266 266 266 265 265 264 264 264 265 265 265 265 265 266
Wind_Speed
31 29 28 29 32 32 31 34 33 35 36 35 33 31 28 25 22 23 21 20 17 15 13 11 9 7 5 4 4 4 2 0 4 4 9 11 12 15 16 16 16 16 14
26 25 28 31 32 35 36 36 34 38 39 38 35 33 30 27 27 26 24 21 19 17 15 12 10 8 6 5 4 3 2 1 2 8 11 12 12 12 14 15 15 13 11
22 24 28 31 33 35 35 34 36 39 42 39 38 36 33 30 30 26 23 22 19 16 14 12 10 8 6 5 3 2 1 1 2 5 8 10 10 11 12 13 14 12 9
22 22 22 31 33 33 34 35 38 41 44 42 39 36 34 32 30 27 25 21 18 16 14 12 10 9 7 5 4 3 1 1 3 5 8 8 9 10 9 13 15 11 9
17 19 22 29 31 33 34 36 37 42 45 41 40 35 33 32 31 28 25 21 19 17 15 12 10 9 8 6 5 3 1 1 3 5 7 9 10 13 12 12 12 12 10
18 19 21 27 31 31 32 35 38 41 42 40 38 35 34 32 29 26 24 22 19 16 15 12 11 8 6 5 5 4 3 4 6 5 8 9 10 10 10 11 11 11 5
22 24 25 26 30 31 32 35 39 40 38 38 37 36 33 30 28 26 24 21 19 18 16 14 12 9 8 7 7 7 7 9 9 10 12 11 11 11 14 13 10 10 11
25 24 26 27 28 30 32 36 38 38 39 39 39 36 32 29 28 26 24 21 19 17 15 13 11 9 9 9 8 8 8 9 10 11 12 14 15 12 13 13 13 14 13
24 26 27 29 30 31 34 36 36 36 37 37 36 34 32 28 26 25 24 21 18 16 14 12 11 10 10 11 9 8 10 12 9 10 12 13 12 13 15 13 10 8 8
31 30 29 30 31 34 35 36 36 37 37 35 33 31 29 26 24 23 23 21 18 16 13 11 10 10 12 11 10 10 12 12 11 9 11 12 14 17 17 16 12 10 7
30 29 29 29 32 34 36 37 38 36 35 34 32 28 26 24 22 21 22 20 18 16 13 11 9 11 11 10 10 14 15 14 12 13 15 16 16 18 19 19 18 13 10
24 26 28 30 32 34 37 37 37 38 36 33 29 25 25 23 21 18 19 19 17 14 11 9 10 11 9 10 12 13 12 12 15 15 14 13 14 15 17 18 19 17 16
21 23 26 28 31 32 35 35 34 34 33 30 30 27 27 25 22 19 17 17 15 12 9 12 12 10 11 11 11 11 12 13 11 12 13 14 14 16 16 18 18 19 19
21 23 25 28 30 32 32 35 35 32 29 29 26 24 27 25 24 22 19 16 14 10 10 14 13 13 11 11 12 12 12 10 9 11 12 13 15 15 16 15 14 14 15
17 20 22 23 27 28 28 32 31 31 33 33 31 31 31 27 27 22 20 18 15 12 15 14 13 12 11 11 12 12 11 9 8 8 10 12 13 15 16 15 15 14 15
15 18 20 21 21 23 24 19 21 27 27 28 29 28 26 22 20 21 18 17 12 14 14 14 12 12 11 10 10 10 10 8 7 8 11 12 13 13 14 14 16 17 18
12 14 18 20 22 22 23 22 20 14 17 19 21 24 23 20 18 17 17 14 14 15 15 14 14 13 12 11 11 10 9 9 11 10 10 11 13 13 14 15 16 16 18
10 13 16 18 20 21 22 21 22 22 20 19 19 20 22 19 17 17 16 16 15 18 18 15 14 13 12 11 11 10 10 10 9 9 10 10 11 12 14 15 16 16 16
7 9 12 14 16 18 20 19 24 24 20 22 21 16 17 15 15 15 17 19 17 16 16 15 14 13 12 12 11 11 10 10 10 11 10 10 10 11 14 15 17 18 19
4 7 10 11 14 17 18 20 18 16 17 20 22 21 21 20 19 20 20 19 17 15 14 13 13 13 12 12 11 11 11 10 10 9 9 10 10 11 14 16 16 17 17
3 4 8 9 12 15 18 19 19 19 21 21 20 20 22 23 19 18 20 19 17 15 14 14 14 13 13 12 11 11 12 11 10 11 11 11 11 12 12 14 16 17 17
2 4 5 8 9 11 12 15 17 17 16 15 15 13 12 16 18 18 18 17 16 16 15 15 15 13 12 12 12 12 13 13 11 11 12 13 13 13 12 14 15 16 15
3 1 1 3 5 7 7 8 9 10 12 12 12 12 14 14 15 17 16 14 14 16 16 16 15 15 13 14 14 15 15 14 13 14 14 14 14 12 12 13 13 14 13
3 2 1 3 5 6 6 7 8 9 10 11 12 13 14 16 17 17 16 16 16 17 17 17 17 16 16 16 17 17 18 16 16 17 17 18 17 14 12 13 12 13 13
5 4 3 4 5 6 7 8 10 11 11 13 14 15 16 17 17 17 17 17 18 18 18 18 18 18 18 19 19 19 19 18 19 19 19 19 19 18 18 16 15 13 12
5 5 5 5 6 7 7 7 8 9 11 12 13 15 16 16 16 16 17 17 18 19 19 19 19 19 19 19 20 20 20 20 19 18 17 18 21 21 16 16 16 13 13
Wind_Direction
210 212 211 211 216 216 211 212 220 212 204 199 197 194 192 187 192 188 184 181 181 179 178 178 174 169 162 144 137 141 138 74 293 296 324 339 347 352 358 2 8 10 9
206 203 211 213 217 219 219 223 219 210 201 197 194 190 190 189 191 187 185 183 184 183 184 180 177 172 171 167 155 151 142 107 312 314 325 340 347 354 355 1 3 8 5
203 202 210 216 216 219 219 218 212 207 197 194 190 190 191 190 187 186 187 185 187 189 186 184 184 182 187 179 176 161 142 3 313 300 313 329 340 354 352 355 0 359 353
204 203 204 210 216 218 218 214 210 203 197 188 189 191 192 187 187 185 185 185 186 188 188 190 193 196 204 194 197 192 176 328 335 324 318 328 339 346 353 349 346 341 332
201 206 210 213 213 216 213 210 205 199 195 186 188 188 188 186 187 185 185 186 187 188 189 196 203 211 213 205 195 200 209 291 307 317 317 326 334 342 344 334 325 325 322
203 206 206 211 210 210 211 206 201 190 188 187 188 186 185 186 187 188 188 187 188 192 193 200 213 217 222 222 215 192 220 271 282 291 308 302 313 321 321 318 314 323 334
203 208 210 208 206 205 203 197 192 187 185 188 186 185 186 185 186 188 191 190 191 195 198 201 209 219 224 234 235 232 253 256 262 268 271 276 294 292 310 299 296 294 275
202 207 208 207 206 201 198 192 187 186 185 188 183 186 186 187 189 193 192 191 194 197 201 203 211 219 234 234 236 250 267 275 278 259 261 278 282 278 295 288 291 294 290
203 204 207 208 205 197 192 190 187 186 185 187 186 183 186 188 191 194 194 192 194 197 201 204 215 225 239 236 243 262 274 283 283 260 259 276 271 280 293 284 283 275 294
205 205 206 206 203 198 195 192 189 190 187 187 184 187 189 189 191 194 192 194 192 196 201 213 223 233 245 236 241 266 278 285 288 283 272 269 279 284 285 273 263 257 266
209 205 204 206 205 201 195 193 191 188 187 186 186 186 190 193 190 193 193 195 198 198 205 218 231 251 249 238 251 268 267 284 280 280 279 277 272 281 277 274 262 252 253
217 207 204 204 203 201 198 193 191 189 185 184 182 181 187 189 192 189 194 196 201 201 213 232 248 248 249 255 260 263 270 269 266 271 270 266 271 274 272 270 259 258 254
217 211 205 203 203 202 193 187 181 184 181 179 181 182 185 187 190 191 196 200 205 206 223 255 249 249 255 256 252 254 268 272 266 262 262 269 272 277 271 267 261 256 257
205 209 205 200 199 199 195 192 186 183 181 182 181 182 187 188 192 197 199 200 207 213 245 244 246 250 250 247 258 265 274 271 264 263 269 274 281 275 268 255 250 253 255
207 208 204 197 194 190 192 194 194 197 197 190 192 193 187 192 199 199 198 201 212 227 233 238 245 249 245 251 262 272 277 278 272 274 274 276 276 273 267 259 249 243 240
205 201 195 196 190 188 184 181 199 207 205 207 208 206 200 205 199 201 206 211 213 217 222 235 240 238 244 255 265 272 280 278 277 276 276 278 276 276 275 269 250 242 245
226 213 206 194 191 184 181 176 159 169 198 203 202 199 202 204 200 202 199 198 207 213 226 235 233 237 246 253 259 264 269 274 281 282 276 276 279 284 287 281 266 251 249
239 230 218 204 196 191 189 184 175 169 170 178 193 198 208 207 203 195 197 195 207 220 231 232 236 243 248 254 260 263 270 280 280 279 280 279 280 284 285 280 274 265 258
243 232 223 214 204 197 190 185 193 192 186 188 192 201 198 198 198 203 197 220 224 228 233 235 240 246 252 258 263 269 275 278 277 282 282 282 286 287 283 280 279 275 267
277 254 229 217 202 192 192 194 193 194 196 202 206 209 205 199 201 207 216 225 231 234 236 239 246 251 255 257 264 271 274 274 274 278 282 289 290 287 285 286 284 282 275
295 256 230 223 213 207 203 200 203 203 207 216 227 231 228 217 216 220 223 229 234 235 240 244 247 249 254 258 263 268 274 276 282 291 295 294 292 292 287 284 283 279 275
321 275 250 233 225 212 207 206 209 213 226 241 250 248 218 231 229 232 233 232 238 241 241 244 248 251 256 261 263 265 269 275 283 291 296 297 297 294 293 291 291 287 280
21 9 228 216 210 210 212 225 237 247 254 255 251 246 225 228 237 238 239 241 243 246 245 245 249 254 257 262 266 270 273 280 287 289 291 290 289 287 289 288 289 290 285
6 337 255 224 224 226 236 245 251 256 254 257 254 246 242 241 242 244 252 254 251 250 251 253 255 258 261 262 265 267 270 273 277 282 284 282 284 286 284 287 288 285 283
358 338 306 276 266 263 259 260 264 261 257 253 252 253 253 251 253 255 255 252 251 253 257 260 261 262 262 264 267 269 271 273 273 276 275 277 276 278 283 285 284 284 279
348 333 313 296 283 276 271 268 265 263 262 262 261 260 262 263 262 261 259 258 258 260 261 263 265 266 266 267 268 269 271 271 271 268 265 267 272 271 272 273 278 277 275